Location: Quedlinburg
(51.7921°N, 11.1414°E)
Time: 18:26:21
(UTC+02:00)

ISS - Visible Passes

Search period start: 16 May 2021 00:00
Search period end: 26 May 2021 00:00
Orbit: 417 x 422 km, 51.6° (Epoch: 15 May)

Date Brightness Start Highest point End Pass type
(mag) Time Alt. Az. Time Alt. Az. Time Alt. Az.
16 May -3.9 01:17:08 10° W 01:20:31 89° S 01:23:54 10° E visible
16 May -3.6 02:53:58 10° W 02:57:14 48° SSW 03:00:30 10° SE visible
16 May -1.9 04:31:45 10° WSW 04:33:28 13° SW 04:35:10 10° S visible
16 May -3.6 22:53:05 10° SW 22:56:20 48° SSE 22:59:37 10° E visible
17 May -3.9 00:29:40 10° W 00:33:03 89° SSW 00:36:26 10° E visible
17 May -3.8 02:06:29 10° W 02:09:50 61° SSW 02:13:11 10° ESE visible
17 May -2.4 03:43:44 10° W 03:46:13 19° SW 03:48:41 10° S visible
17 May -3.2 22:05:51 10° SW 22:08:58 36° SSE 22:12:06 10° E visible
17 May -3.9 23:42:13 10° W 23:45:36 84° SSE 23:48:58 10° E visible
18 May -3.9 01:19:02 10° W 01:22:24 74° SSW 01:22:52 60° SE visible
18 May -3.9 22:54:46 10° WSW 22:58:08 75° SSE 23:01:31 10° E visible
19 May -3.9 00:31:33 10° W 00:34:57 84° S 00:36:27 31° ESE visible
19 May -1.7 02:08:27 10° W 02:09:22 16° W 02:09:22 16° W visible
19 May -3.7 22:07:22 10° WSW 22:10:42 62° SSE 22:14:02 10° E visible
19 May -3.8 23:44:06 10° W 23:47:29 89° S 23:50:16 14° E visible
20 May -2.8 01:20:55 10° W 01:23:11 34° WSW 01:23:11 34° WSW visible
20 May -3.8 22:56:37 10° W 23:00:00 90° S 23:03:23 10° E visible
21 May -3.8 00:33:26 10° W 00:36:46 61° SSW 00:37:05 57° SSE visible
21 May -3.8 22:09:09 10° W 22:12:31 85° S 22:15:54 10° E visible
21 May -3.9 23:45:57 10° W 23:49:20 74° S 23:51:01 27° ESE visible
22 May -1.6 01:22:57 10° W 01:23:58 16° WSW 01:23:58 16° WSW visible
22 May -3.8 22:58:28 10° W 23:01:51 84° S 23:05:00 12° E visible
23 May -2.9 00:35:21 10° W 00:37:57 33° SW 00:37:57 33° SW visible
23 May -3.8 22:10:59 10° W 22:14:22 89° SSW 22:17:45 10° E visible
23 May -3.5 23:47:48 10° W 23:51:05 47° SSW 23:51:57 37° SSE visible
24 May -3.7 23:00:19 10° W 23:03:39 61° SSW 23:05:58 18° ESE visible
25 May -1.7 00:37:34 10° W 00:38:54 16° WSW 00:38:54 16° WSW visible
25 May -3.8 22:12:49 10° W 22:16:11 74° SSW 22:19:33 10° ESE visible
25 May -2.6 23:49:49 10° W 23:52:41 26° SSW 23:52:57 26° SSW visible
